Regional Weather Roundup
Issued by NWS

Home | Current Version | Previous Version | Graphics & Text | Print | Product List | Glossary On
Versions: 1 2 3 4 5 6 7 8 9 10 11 12 13 14 15 16 17 18 19 20 21 22 23 24 25 26 27 28 29 30 31 32 33 34 35 36 37 38 39 40 41 42 43 44 45 46 47 48 49 50
000
ASUS43 KLMK 201010
RWRKY
KENTUCKY REGIONAL WEATHER ROUNDUP
NATIONAL WEATHER SERVICE LOUISVILLE KY
500 AM EST SAT DEC 20 2014

NOTE "FAIR" INDICATES FEW OR NO CLOUDS BELOW 12,000 FEET
WITH NO SIGNIFICANT WEATHER AND/OR OBSTRUCTIONS TO VISIBILITY.

KYZ001>023-026-027-061>063-070>075-201100-
WESTERN AND SOUTH CENTRAL KENTUCKY

CITY           SKY/WX    TMP DP  RH WIND       PRES   REMARKS
PADUCAH        CLOUDY    35  27  72 E5        30.25F WCI  31
HENDERSON      CLOUDY    30  25  80 NE5       30.26F WCI  25
OWENSBORO      CLOUDY    31  25  78 NE5       30.28S WCI  26
HOPKINSVILLE   CLOUDY    32  27  82 N6        30.24S WCI  27
BOWLING GREEN  CLOUDY    32  24  72 CALM      30.25S
GLASGOW        PTCLDY    30  25  82 CALM      30.23S
$$

KYZ024-025-028>034-038-045-046-053-201100-
NORTH CENTRAL KENTUCKY

CITY           SKY/WX    TMP DP  RH WIND       PRES   REMARKS
LOUISVILLE/SDF CLOUDY    30  24  78 N5        30.26F WCI  25
LOUISVILLE/LOU CLOUDY    29  24  82 N5        30.27S WCI  24
FORT KNOX      CLOUDY    29  22  77 N2        30.23F
$$

KYZ035>037-039>044-047>052-055>060-089>105-201100-
NORTHEAST KENTUCKY

CITY           SKY/WX    TMP DP  RH WIND       PRES   REMARKS
LEXINGTON      CLOUDY    28  23  81 N3        30.24R
COVINGTON      CLOUDY    30  21  69 CALM      30.24F
FRANKFORT      CLOUDY    28  22  78 N3        30.23F
$$

KYZ054-064>069-076>088-106>120-201100-
SOUTHEAST KENTUCKY

CITY           SKY/WX    TMP DP  RH WIND       PRES   REMARKS
JACKSON        CLOUDY    27  21  78 VRB3      30.19S
LONDON         CLOUDY    31  23  72 NE3       30.19R
SOMERSET       CLOUDY    30  25  80 NE3       30.23S
MIDDLESBORO    NOT AVBL
MONTICELLO     PTSUNNY   31  26  81 CALM      30.24S
$$



USA.gov is the U.S. government's official web portal to all federal, state and local government web resources and services.